Simultaneous Nadir Overpasses (SNOs) Predictions

Prediction of SNOs between AQUA and GOES-15 Satellite Orbit:

Table of predicted SNOs for the next 14.0 days since TLE Epoch: 5/10/2019
Index Date Time (AQUA) AQUA Lat,Lon GOES-15 Lat,Lon Distance(km) Time Diff (sec)
1 05/11/2019 22:10:28 -0.12,-128.66 -0.05,-128.31 39.84 80
2 05/13/2019 21:58:16 0.51,-125.71 -0.06,-128.34 299.98 80
3 05/14/2019 10:19:31 0.58,-130.86 0.05,-128.35 285.33 80
4 05/16/2019 10:07:19 -0.06,-127.91 0.05,-128.38 54.15 80
5 05/18/2019 09:55:07 -0.71,-124.95 0.05,-128.41 393.19 80
6 05/18/2019 22:16:31 -0.41,-130.14 -0.03,-128.41 197.41 80
7 05/20/2019 22:04:19 0.24,-127.19 -0.03,-128.43 141.09 80
8 05/21/2019 10:25:34 0.85,-132.34 0.02,-128.44 444.08 80
9 05/22/2019 21:52:07 0.89,-124.23 -0.03,-128.44 479.32 80
10 05/23/2019 10:13:22 0.20,-129.39 0.02,-128.45 106.05 80




NCC Satellite Simultaneous Nadir Overpasses (SNOs) Prediction Service
